CW7218 Weather Reports


time (UTC)temp
F
wind
direction
speed
knots
gust
knots
rain 1hr
in
rain 24hr
in
rain mn
in
humidity
%
barometer
mb
20260831032027 66 68 7.0 9.6 0.00 0.00 0.00 65 1020.2
20260831031027 66 45 7.0 10.4 0.00 0.00 0.00 63 1020.4
20260831030027 67 45 5.2 8.7 0.00 0.00 0.00 62 1020.3
20260831025027 67 45 6.1 9.6 0.00 0.00 0.00 63 1020.4
20260831024027 66 45 6.1 8.7 0.00 0.00 0.00 64 1020.4
20260831023027 66 23 5.2 9.6 0.00 0.00 0.00 64 1020.3
20260831022027 66 45 4.3 7.0 0.00 0.00 0.00 63 1020.3
20260831021026 66 45 4.3 7.0 0.00 0.00 0.00 63 1020.3
20260831020026 66 45 4.3 7.0 0.00 0.00 0.00 63 1020.4
20260831015026 67 45 5.2 7.8 0.00 0.00 0.00 62 1020.5
20260831014026 67 45 6.1 7.8 0.00 0.00 0.00 61 1020.4
20260831013046 68 23 4.3 7.0 0.00 0.00 0.00 60 1020.5
20260831012046 68 0 4.3 7.0 0.00 0.00 0.00 60 1020.4
20260831011026 68 45 3.5 5.2 0.00 0.00 0.00 60 1020.4
20260831010026 68 23 3.5 7.0 0.00 0.00 0.00 61 1020.4
20260831005046 68 0.0 3.5 0.00 0.00 0.00 60 1020.4
20260831004026 69 248 0.9 2.6 0.00 0.00 0.00 59 1020.2
20260831003026 69 23 5.2 7.8 0.00 0.00 0.00 59 1020.2
20260831002046 69 23 5.2 9.6 0.00 0.00 0.00 57 1020.2
20260831001046 69 23 5.2 8.7 0.00 0.00 0.00 57 1020.0
20260831000026 70 23 6.1 9.6 0.00 0.00 0.00 57 1020.3
20260830235026 70 0 6.1 9.6 0.00 0.00 0.00 58 1020.3
20260830234026 69 23 6.1 9.6 0.00 0.00 0.00 59 1020.4
20260830233046 69 23 6.1 11.3 0.00 0.00 0.00 60 1020.3
20260830232026 68 68 6.1 8.7 0.00 0.00 0.00 61 1020.4
20260830231026 68 45 5.2 7.8 0.00 0.00 0.00 60 1020.4
20260830230026 69 45 4.3 7.8 0.00 0.00 0.00 59 1020.4
20260830225026 69 23 6.1 10.4 0.00 0.00 0.00 58 1020.4
20260830224026 68 45 6.1 8.7 0.00 0.00 0.00 59 1020.3
20260830223026 69 45 4.3 8.7 0.00 0.00 0.00 58 1020.5
20260830222026 69 23 4.3 7.0 0.00 0.00 0.00 57 1020.4
20260830221028 70 68 3.5 6.1 0.00 0.00 0.00 57 1020.2
20260830220048 70 68 4.3 6.1 0.00 0.00 0.00 57 1020.1
20260830215028 70 45 5.2 7.0 0.00 0.00 0.00 57 1020.2
20260830214028 70 45 4.3 7.0 0.00 0.00 0.00 57 1020.1
20260830213028 70 45 3.5 7.0 0.00 0.00 0.00 57 1020.1
20260830212028 71 45 3.5 6.1 0.00 0.00 0.00 55 1020.1
20260830211028 72 23 3.5 6.1 0.00 0.00 0.00 52 1020.1
20260830210028 72 0 4.3 6.1 0.00 0.00 0.00 52 1020.0
20260830205028 72 23 3.5 6.1 0.00 0.00 0.00 52 1020.0
20260830204028 73 23 1.7 3.5 0.00 0.00 0.00 51 1020.0
20260830203028 73 0 1.7 3.5 0.00 0.00 0.00 50 1019.6
20260830202028 73 338 3.5 6.1 0.00 0.00 0.00 51 1019.6
20260830201048 74 315 2.6 5.2 0.00 0.00 0.00 50 1019.6
20260830200027 74 315 1.7 3.5 0.00 0.00 0.00 50 1019.4
20260830195027 75 315 0.9 1.7 0.00 0.00 0.00 49 1019.3
20260830194028 75 315 0.9 3.5 0.00 0.00 0.00 49 1019.2
20260830193028 76 248 2.6 5.2 0.00 0.00 0.00 48 1018.8
20260830192027 77 0 2.6 6.1 0.00 0.00 0.00 47 1018.7
20260830191027 77 248 1.7 3.5 0.00 0.00 0.00 47 1018.7
20260830190047 77 225 1.7 3.5 0.00 0.00 0.00 46 1018.3
20260830185048 77 270 2.6 3.5 0.00 0.00 0.00 46 1018.2
20260830184047 78 248 2.6 6.1 0.00 0.00 0.00 45 1018.1
20260830183027 79 225 3.5 7.0 0.00 0.00 0.00 44 1017.8
20260830182047 79 225 3.5 7.0 0.00 0.00 0.00 44 1017.7
20260830181027 79 225 3.5 8.7 0.00 0.00 0.00 44 1017.7
20260830180027 79 248 5.2 7.8 0.00 0.00 0.00 44 1017.7
20260830175027 81 225 5.2 9.6 0.00 0.00 0.00 43 1017.6
20260830174047 81 0 6.1 8.7 0.00 0.00 0.00 41 1017.7
20260830173027 82 225 6.1 10.4 0.00 0.00 0.00 40 1017.6
20260830172027 83 225 5.2 9.6 0.00 0.00 0.00 40 1017.6
20260830171027 82 0 6.1 11.3 0.00 0.00 0.00 41 1017.5
20260830170027 82 0 7.8 12.2 0.00 0.00 0.00 41 1017.4
20260830165047 83 0 6.1 11.3 0.00 0.00 0.00 41 1017.5
20260830164027 83 0 7.8 14.8 0.00 0.00 0.00 41 1017.5
20260830163047 83 0 9.6 16.5 0.00 0.00 0.00 41 1017.4
20260830162027 83 0 7.0 11.3 0.00 0.00 0.00 42 1017.4
20260830161027 84 158 7.0 14.8 0.00 0.00 0.00 42 1017.5
20260830160027 84 0 8.7 14.8 0.00 0.00 0.00 43 1017.4
20260830155027 84 0 9.6 15.6 0.00 0.00 0.00 43 1017.4
20260830154027 85 0 8.7 20.0 0.00 0.00 0.00 40 1017.5
20260830153027 86 0 8.7 15.6 0.00 0.00 0.00 37 1017.4
20260830152027 86 180 9.6 17.4 0.00 0.00 0.00 37 1017.5
20260830151027 86 0 6.1 13.9 0.00 0.00 0.00 33 1017.3
20260830150027 86 0 6.1 12.2 0.00 0.00 0.00 35 1017.6
20260830145027 86 158 7.0 15.6 0.00 0.00 0.00 35 1017.7
20260830144047 86 0 7.0 20.0 0.00 0.00 0.00 34 1017.8
20260830143027 86 0 7.0 13.9 0.00 0.00 0.00 34 1017.7
20260830142047 85 0 8.7 14.8 0.00 0.00 0.00 35 1017.9
20260830141027 85 0 7.0 14.8 0.00 0.00 0.00 35 1018.1
20260830140028 85 158 7.0 13.9 0.00 0.00 0.00 35 1018.3
20260830135047 85 180 7.8 16.5 0.00 0.00 0.00 35 1018.4
20260830134027 85 225 7.0 17.4 0.00 0.00 0.00 35 1018.5
20260830133026 85 0 7.0 14.8 0.00 0.00 0.00 36 1018.6
20260830132026 84 203 8.7 19.1 0.00 0.00 0.00 37 1018.7
20260830131026 84 203 7.8 18.2 0.00 0.00 0.00 36 1018.9
20260830130107 84 158 4.3 10.4 0.00 0.00 0.00 36 1018.9
20260830125026 84 0 4.3 10.4 0.00 0.00 0.00 36 1019.1
20260830123026 82 158 7.0 14.8 0.00 0.00 0.00 37 1019.3
20260830122026 82 158 8.7 14.8 0.00 0.00 0.00 37 1019.5
20260830121026 83 158 7.0 14.8 0.00 0.00 0.00 37 1019.6
20260830120046 82 0 5.2 12.2 0.00 0.00 0.00 38 1019.7
20260830115026 81 158 6.1 11.3 0.00 0.00 0.00 37 1019.8
20260830114046 82 135 6.1 12.2 0.00 0.00 0.00 40 1019.9
20260830113026 81 158 5.2 10.4 0.00 0.00 0.00 41 1020.1
20260830112026 81 158 5.2 13.0 0.00 0.00 0.00 41 1020.2
20260830111026 80 158 5.2 10.4 0.00 0.00 0.00 42 1020.1
20260830110026 80 180 4.3 9.6 0.00 0.00 0.00 43 1020.3
20260830105026 79 225 4.3 9.6 0.00 0.00 0.00 43 1020.3
20260830104027 79 180 4.3 8.7 0.00 0.00 0.00 44 1020.5
20260830103046 79 203 5.2 11.3 0.00 0.00 0.00 44 1020.6
20260830102026 79 158 4.3 8.7 0.00 0.00 0.00 45 1020.6
20260830101026 79 158 4.3 7.8 0.00 0.00 0.00 45 1020.7
20260830100106 79 158 3.5 6.1 0.00 0.00 0.00 46 1020.9
20260830095026 78 158 2.6 7.8 0.00 0.00 0.00 46 1020.9
20260830094026 78 135 2.6 8.7 0.00 0.00 0.00 47 1021.1
20260830093046 78 135 1.7 6.1 0.00 0.00 0.00 48 1021.1
20260830092026 77 90 2.6 7.0 0.00 0.00 0.00 47 1021.1
20260830091026 77 158 1.7 4.3 0.00 0.00 0.00 48 1021.2
20260830090026 76 158 3.5 6.1 0.00 0.00 0.00 49 1021.2
20260830085046 76 180 2.6 4.3 0.00 0.00 0.00 50 1021.2
20260830084048 76 135 2.6 7.8 0.00 0.00 0.00 49 1021.2
20260830083028 75 68 1.7 4.3 0.00 0.00 0.00 53 1021.2
20260830082048 74 90 1.7 5.2 0.00 0.00 0.00 56 1021.1
20260830081028 73 68 2.6 6.1 0.00 0.00 0.00 59 1021.1
20260830080108 72 68 4.3 7.0 0.00 0.00 0.00 61 1021.2
20260830075028 71 90 2.6 6.1 0.00 0.00 0.00 61 1021.0
20260830074027 70 45 5.2 7.8 0.00 0.00 0.00 63 1020.9
20260830073027 70 45 5.2 7.8 0.00 0.00 0.00 63 1021.1
20260830072028 69 45 5.2 7.8 0.00 0.00 0.00 64 1020.9
20260830071028 67 23 6.1 8.7 0.00 0.00 0.00 66 1020.7
20260830070028 66 45 7.0 10.4 0.00 0.00 0.00 68 1020.7
20260830065027 65 45 5.2 10.4 0.00 0.00 0.00 69 1020.7
20260830064027 65 45 5.2 7.8 0.00 0.00 0.00 70 1020.6
20260830063027 64 45 5.2 7.0 0.00 0.00 0.00 71 1020.5
20260830062027 64 23 6.1 8.7 0.00 0.00 0.00 70 1020.5
20260830061027 64 23 7.0 8.7 0.00 0.00 0.00 72 1020.3
20260830060027 63 45 7.0 9.6 0.00 0.00 0.00 72 1020.3
20260830055027 63 45 5.2 8.7 0.00 0.00 0.00 72 1020.3
20260830054027 63 45 6.1 9.6 0.00 0.00 0.00 72 1020.2
20260830053028 63 45 5.2 8.7 0.00 0.00 0.00 71 1020.2
20260830052047 63 45 6.1 9.6 0.00 0.00 0.00 72 1020.2
20260830051047 63 45 5.2 9.6 0.00 0.00 0.00 71 1020.2
20260830050027 63 45 6.1 8.7 0.00 0.00 0.00 72 1020.2
20260830045027 63 68 6.1 8.7 0.00 0.00 0.00 72 1020.1
20260830044027 63 68 4.3 8.7 0.00 0.00 0.00 72 1020.2
20260830043027 63 68 3.5 7.0 0.00 0.00 0.00 72 1020.4
20260830042027 64 45 3.5 6.1 0.00 0.00 0.00 71 1020.4
20260830041028 64 23 4.3 7.8 0.00 0.00 0.00 71 1020.4
20260830040047 63 45 4.3 7.0 0.00 0.00 0.00 72 1020.5
20260830035027 63 23 5.2 7.8 0.00 0.00 0.00 72 1020.4
20260830034107 63 45 6.1 10.4 0.00 0.00 0.00 71 1020.4
20260830033027 64 45 6.1 8.7 0.00 0.00 0.00 71 1020.4